This is the latest recevied weather packets stored in our database for station/object KI6SYE. If no packets are shown the sender has not sent any weather packets the latest 10 day(s).
| Time | Temp. | Humidity | Pressure | Rain* | Wind** | Luminosity | Snow |
|---|---|---|---|---|---|---|---|
| 1777602624 | 16.11° C | 85% | 1011.2 hPa | 0 mm | - | 6 W/m² | - |
| 1777602319 | 16.11° C | 86% | 1011.2 hPa | 0 mm | - | 9 W/m² | - |
| 1777602015 | 16.11° C | 86% | 1011.1 hPa | 0 mm | - | 13 W/m² | - |
| 1777601710 | 16.11° C | 86% | 1011.2 hPa | 0 mm | - | 18 W/m² | - |
| 1777601406 | 16.67° C | 84% | 1011.5 hPa | 0 mm | - | 23 W/m² | - |
| 1777601101 | 16.67° C | 85% | 1011.3 hPa | 0 mm | - | 28 W/m² | - |
| 1777600800 | 16.67° C | 84% | 1011.1 hPa | 0 mm | - | 35 W/m² | - |
| 1777600495 | 16.67° C | 84% | 1011.1 hPa | 0 mm | - | 42 W/m² | - |
| 1777600190 | 16.67° C | 85% | 1011 hPa | 0 mm | - | 45 W/m² | - |
| 1777599887 | 17.22° C | 84% | 1011.2 hPa | 0 mm | - | 54 W/m² | - |
| 1777599583 | 17.22° C | 84% | 1010.9 hPa | 0 mm | - | 64 W/m² | - |
| 1777599280 | 16.67° C | 85% | 1011 hPa | 0 mm | - | 64 W/m² | - |
| 1777598976 | 17.22° C | 84% | 1010.9 hPa | 0 mm | - | 56 W/m² | - |
| 1777598674 | 17.22° C | 83% | 1010.9 hPa | 0 mm | - | 56 W/m² | - |
| 1777598369 | 17.22° C | 83% | 1010.9 hPa | 0 mm | - | 56 W/m² | - |
| 1777598068 | 17.22° C | 82% | 1010.8 hPa | 0 mm | - | 58 W/m² | - |
| 1777597767 | 17.22° C | 83% | 1010.9 hPa | 0 mm | - | 63 W/m² | - |
| 1777597462 | 17.78° C | 82% | 1010.8 hPa | 0 mm | - | 66 W/m² | - |
| 1777597158 | 17.78° C | 82% | 1011.1 hPa | 0 mm | - | 77 W/m² | - |
| 1777596854 | 17.78° C | 82% | 1011.1 hPa | 0 mm | - | 92 W/m² | - |
| 1777596550 | 17.78° C | 81% | 1011 hPa | 0 mm | - | 79 W/m² | - |
| 1777596247 | 18.33° C | 80% | 1011 hPa | 0 mm | - | 121 W/m² | - |
| 1777595945 | 17.78° C | 80% | 1010.9 hPa | 0 mm | - | 192 W/m² | - |
| 1777595645 | 18.33° C | 79% | 1011.1 hPa | 0 mm | - | 208 W/m² | - |
| 1777595341 | 18.33° C | 79% | 1011.1 hPa | 0 mm | - | 225 W/m² | - |
* Rain latest hour (hover to see other rain measurements)
** Current wind speed in m/s (hover to see current wind gust speed)